Flag for U.S.A. Weather past 2 weeks in Costa Mesa, California, U.S.A.

83 °F

Scattered clouds.

Feels Like: 86 °F
Forecast: 72 / 84 °F
Wind: 10 mph from Southwest

Location: John Wayne Airport-Orange County Airport

Current Time: Oct 13, 2015 at 12:33:12 PM

Latest Report: Oct 13, 2015 at 11:53 AM

Visibility: 10 mi

Pressure: 30.04 "Hg

Humidity: 63%

Dew point: 69 °F

Location of Costa MesaLocation

Historic Weather in Costa Mesa — Graph


Costa Mesa temperature yesterday

Maximum temperature yesterday: 91 °F (at 4:53 PM)
Minimum temperature yesterday: 71 °F (at 5:53 AM)
Average temperature yesterday: 81 °F

Past Weeks' High & Low Weather Summary

High103 °F (Oct 9, 1:53 PM)93% (Oct 4, 11:53 PM)30.10 "Hg (Oct 4, 11:53 PM)
Low61 °F (Oct 5, 2:53 AM)15% (Oct 9, 1:53 PM)29.55 "Hg (Oct 3, 6:53 PM)
Average75 °F65%29.88 "Hg
* Reported Sep 28 10:53 AM — Oct 13 10:53 AM, Costa Mesa, Weather by CustomWeather, © 2015

Note: Actual official high and low records may vary slightly from our data, if they occured in-between our weather recording intervals... More about our weather records


Costa Mesa weather history for previous 24 hours

Time TempWeatherWind HumidityBarometerVisibility
10:53 AM
Tue, Oct 13
84 °FPassing clouds.10 mph57%30.05 "Hg10 mi
9:53 AM84 °FPassing clouds.9 mph53%30.05 "Hg10 mi
8:53 AM83 °FSunny.No wind51%30.04 "Hg10 mi
7:53 AM80 °FPassing clouds.5 mph54%30.03 "Hg10 mi
6:53 AM78 °FPassing clouds.3 mph54%30.01 "Hg10 mi
5:53 AM78 °FPassing clouds.5 mph54%30.00 "Hg10 mi
4:53 AM80 °FClear.3 mph49%29.98 "Hg10 mi
3:53 AM80 °FClear.3 mph49%29.98 "Hg10 mi
2:53 AM80 °FClear.No wind54%29.98 "Hg10 mi
1:53 AM79 °FClear.No wind54%29.97 "Hg10 mi
12:53 AM79 °FClear.No wind58%29.96 "Hg10 mi
11:53 PM
Mon, Oct 12
79 °FClear.No wind56%29.94 "Hg10 mi
10:53 PM78 °FClear.7 mph66%29.92 "Hg10 mi
9:53 PM80 °FClear.No wind60%29.90 "Hg10 mi
8:53 PM80 °FPassing clouds.No wind58%29.89 "Hg10 mi
7:53 PM82 °FPartly cloudy.No wind55%29.87 "Hg10 mi
6:53 PM89 °FBroken clouds.No wind34%29.86 "Hg10 mi
5:53 PM91 °FBroken clouds.No wind31%29.85 "Hg10 mi
4:53 PM91 °FBroken clouds.No wind31%29.86 "Hg10 mi
3:53 PM90 °FCloudy.No wind31%29.88 "Hg10 mi
2:53 PM90 °FBroken clouds.No wind31%29.89 "Hg10 mi
1:53 PM89 °FScattered clouds.5 mph32%29.90 "Hg10 mi
12:53 PM88 °FScattered clouds.No wind34%29.93 "Hg10 mi
Weather by CustomWeather, © 2015

See weather overviewHow to use our weather pages